Starlink 30715

operational
NORAD ID: 57941 Int'l Des: 2023-148 Owner: SPXS Country: US Constellation: starlink
LEOCIRCULAR

About Starlink 30715

Description loading...

Live Position

Loading 3D Globe...

Upcoming Passes

Altitude History

Altitude vs Time

uPlot chart will show altitude changes over time

Two-Line Element Set

1 57941U 23148G 25257.97493751 .00018056 00000-0 62083-3 0 9992
2 57941 53.1596 110.1674 0001626 91.4748 268.6439 15.30170051111661
Epoch: Sep 14, 2025 • Age: 21 hours

Current Status

Altitude 480.4 km
Velocity 7.63 km/s
Sub-Earth Point 52.02°N, 84.74°W
Launch Date Sep 25, 2023
Age 1.9 years
Type internet

Technical Details

Classification Payload
Mass 730.00 kg
Dry Mass 700.00 kg
Total Mass 730.00 kg
Length 0.30 m
Diameter 4.10 m
Span 29.00 m
Shape Box + pan
Manufacturer SPXS
Bus Type Starlink V2M
Phase Status In Orbit
Owner/State SPXS/US

Large Constellations

Loading constellations...